TimeCST,TemperatureF,Dew PointF,Humidity,Sea Level PressureIn,VisibilityMPH,Wind Direction,Wind SpeedMPH,Gust SpeedMPH,PrecipitationIn,Events,Conditions,WindDirDegrees,DateUTC
12:55 AM,18.0,10.9,74,30.22,10.0,North,9.2,-,N/A,,Overcast,360,2013-01-01 06:55:00
1:55 AM,18.0,10.0,71,30.24,10.0,North,8.1,-,N/A,,Overcast,10,2013-01-01 07:55:00
2:55 AM,14.0,8.1,77,30.25,10.0,North,5.8,-,N/A,,Clear,10,2013-01-01 08:55:00
3:55 AM,14.0,8.1,77,30.26,10.0,North,6.9,-,N/A,,Partly Cloudy,350,2013-01-01 09:55:00
4:55 AM,12.0,7.0,80,30.27,10.0,North,6.9,-,N/A,,Clear,350,2013-01-01 10:55:00
5:55 AM,10.4,5.0,79,30.19,10.0,North,10.4,-,N/A,,Clear,360,2013-01-01 11:55:00
6:55 AM,8.1,3.0,80,30.26,10.0,North,8.1,-,N/A,,Clear,10,2013-01-01 12:55:00
7:55 AM,5.0,1.0,84,30.30,10.0,North,5.8,-,N/A,,Clear,10,2013-01-01 13:55:00
8:55 AM,9.0,3.0,77,30.34,10.0,North,6.9,-,N/A,,Clear,360,2013-01-01 14:55:00
9:55 AM,12.0,3.9,70,30.37,10.0,Calm,Calm,-,N/A,,Clear,0,2013-01-01 15:55:00
10:55 AM,14.0,5.0,67,30.35,10.0,NNW,3.5,-,N/A,,Clear,330,2013-01-01 16:55:00
11:55 AM,16.0,6.1,65,30.32,10.0,North,8.1,-,N/A,,Clear,350,2013-01-01 17:55:00
12:55 PM,17.1,3.9,56,30.30,10.0,North,6.9,-,N/A,,Clear,350,2013-01-01 18:55:00
1:55 PM,19.9,7.0,57,30.29,10.0,North,4.6,-,N/A,,Clear,350,2013-01-01 19:55:00
2:55 PM,19.9,6.1,55,30.29,10.0,Calm,Calm,-,N/A,,Clear,0,2013-01-01 20:55:00
3:55 PM,18.0,8.1,65,30.30,10.0,South,4.6,-,N/A,,Clear,190,2013-01-01 21:55:00
4:55 PM,17.1,7.0,65,30.30,10.0,South,4.6,-,N/A,,Clear,190,2013-01-01 22:55:00
5:55 PM,17.1,6.1,62,30.30,10.0,WSW,3.5,-,N/A,,Clear,240,2013-01-01 23:55:00
6:55 PM,12.0,5.0,73,30.29,10.0,SW,3.5,-,N/A,,Clear,230,2013-01-02 00:55:00
7:55 PM,7.0,3.0,84,30.30,10.0,WSW,3.5,-,N/A,,Clear,240,2013-01-02 01:55:00
8:55 PM,6.1,1.9,83,30.31,10.0,SW,4.6,-,N/A,,Clear,220,2013-01-02 02:55:00
9:55 PM,10.0,5.0,80,30.29,10.0,SW,4.6,-,N/A,,Clear,230,2013-01-02 03:55:00
10:55 PM,10.0,5.0,80,30.29,10.0,WSW,3.5,-,N/A,,Clear,240,2013-01-02 04:55:00
11:55 PM,9.0,3.0,77,30.28,10.0,WSW,3.5,-,N/A,,Clear,240,2013-01-02 05:55:00